Regional Weather Roundup
Issued by NWS

Home | Current Version | Previous Version | Text Only | Print | Product List | Glossary Off
Versions: 1 2 3 4 5 6 7 8 9 10 11 12 13 14 15 16 17 18 19 20 21 22 23 24 25 26 27 28 29 30 31 32 33 34 35 36 37 38 39 40 41 42 43 44 45 46 47 48 49 50

000
ASUS45 KCYS 270210
RWRWY

WYOMING REGIONAL WEATHER ROUNDUP
NATIONAL WEATHER SERVICE CHEYENNE WY
800 PM MDT TUE MAY 26 2015

NOTE:  "FAIR" INDICATES FEW OR NO CLOUDS BELOW 12,000 FEET
WITH NO SIGNIFICANT WEATHER AND/OR OBSTRUCTIONS TO VISIBILITY.

WYZ001-270300-
YELLOWSTONE NATIONAL PARK

CITY           SKY/WX    TMP DP  RH WIND       PRES   REMARKS
LK YELLOWSTONE   N/A     42  37  82 CALM      30.13S
W YELLOWSTONE  NOT AVBL

$$
WYZ002>013-054>058-071-098>099-270300-
NORTHERN WYOMING

CITY           SKY/WX    TMP DP  RH WIND       PRES   REMARKS
JACKSON        PTCLDY    48  43  81 CALM      30.08S
CODY           CLOUDY    54  48  82 NW9       30.00S
GREYBULL       CLOUDY    64  46  52 NW9       29.92R
WORLAND        FAIR      62  47  57 N12       29.93R
SHERIDAN       MOCLDY    59  50  72 NW6       29.94R
BUFFALO        MOCLDY    61  45  55 E5        29.97R
GILLETTE       FAIR      58  50  75 S13       29.95S
HULETT         FAIR      59  52  77 S5        29.96S
NEWCASTLE      LGT RAIN  59  43  55 SE9       30.00R

$$
WYZ014>020-022>026-101>103-270300-
CENTRAL WYOMING

CITY           SKY/WX    TMP DP  RH WIND       PRES   REMARKS
BIG PINEY      CLOUDY    50  44  80 NE3       30.08S
PINEDALE       CLOUDY    50  39  66 CALM      30.09S
DUBOIS         MOCLDY    50  36  57 W12       30.05R
LANDER         NOT AVBL
RIVERTON       MOCLDY    58  47  66 W3        29.98R
CASPER         CLOUDY    57  43  59 NW16G25   29.98R
DOUGLAS        CLOUDY    62  47  57 S9        29.99R

$$
WYZ021-027>030-104>119-270300-
SOUTHERN WYOMING

CITY           SKY/WX    TMP DP  RH WIND       PRES   REMARKS
EVANSTON       CLOUDY    50  43  77 W8        30.10S
KEMMERER       LGT RAIN  46  45  93 W8        30.10S
FORT BRIDGER   MOCLDY    52  46  82 W12       30.12S
ROCK SPRINGS   MOCLDY    51  45  79 S5        30.07S
DIXON          CLOUDY    58  41  54 S21G32    30.12R THUNDER
RAWLINS        FAIR      56  40  55 W9        30.06R
SARATOGA       MOCLDY    52  45  76 MISG      30.10R
LARAMIE        MOCLDY    51  41  68 S9        30.08S
CHEYENNE       LGT RAIN  55  47  74 NW5       30.07R
TORRINGTON     CLOUDY    63  51  65 SE12      29.97R
PINE BLUFFS    FAIR      57  50  77 S7        30.04S

$$


USA.gov is the U.S. government's official web portal to all federal, state and local government web resources and services.